Weather History for Daytona Beach, FL

Change the Weather History Date:

Saturday, August 31, 2013

  Actual Average Record
Temperature  
Mean Temperature 83 °F 81 °F  
Max Temperature 94 °F 88 °F 96 °F (2001)
Min Temperature 71 °F 73 °F 66 °F (1939)
Degree Days  
Heating Degree Days 0 0  
Month to date heating degree days 0 0  
Since 1 June heating degree days 0 0  
Since 1 July heating degree days 0 0  
Cooling Degree Days 18 16  
Month to date cooling degree days 549 511  
Year to date cooling degree days 2196 2074  
Since 1 June cooling degree days 1544 1473  
Growing Degree Days 31 (Base 50)    
Moisture  
Dew Point 71 °F    
Average Humidity 72    
Maximum Humidity 94    
Minimum Humidity 49    
Precipitation  
Precipitation 0.49 in 0.22 in 2.23 in (2007)
Month to date precipitation 6.21 6.40  
Year to date precipitation 35.22 33.13  
Sea Level Pressure  
Sea Level Pressure 29.95 in    
Wind  
Wind Speed 6 mph (SSW)    
Max Wind Speed 26 mph    
Max Gust Speed 35 mph    
Visibility 9 miles    
Events Rain , Thunderstorm    
T = Trace of Precipitation, MM = Missing Value Source: NWS Daily Summary

Daily Weather History Graph

Daily Weather History Graph

Search for Another Location

Airport:

Trip Planner

Search our weather history database for the weather conditions in past years. The results will help you decide how hot, cold, wet, or windy it might be!

Date:

Astronomy

Aug. 31, 2013 Rise Set
Actual Time 7:01 AM EDT 7:46 PM EDT
Civil Twilight 6:37 AM EDT 8:11 PM EDT
Nautical Twilight 6:08 AM EDT 8:39 PM EDT
Astronomical Twilight 5:39 AM EDT 9:08 PM EDT
Moon 2:42 AM EDT (8/31) 4:32 PM EDT (8/31)
Length of Visible Light 13h 33m
Length of Day
12h 45m
Waning Crescent, 21% of the Moon is Illuminated
Aug 31
Waning Crescent
Sep 5
New
Sep 12
First Quarter
Sep 19
Full
Sep 26
Last Quarter

Hourly Weather History & Observations

Time (EDT) Temp. Heat Index Dew Point Humidity Pressure Visibility Wind Dir Wind Speed Gust Speed Precip Events Conditions
12:53 AM 75.9 °F - 72.0 °F 87% 29.94 in 10.0 mi SSW 3.5 mph - N/A   Partly Cloudy
1:53 AM 75.9 °F - 72.0 °F 87% 29.92 in 10.0 mi Calm Calm - N/A   Scattered Clouds
2:53 AM 75.9 °F - 72.0 °F 87% 29.91 in 10.0 mi SSE 3.5 mph - N/A   Scattered Clouds
3:53 AM 75.9 °F - 73.0 °F 91% 29.92 in 10.0 mi SSW 3.5 mph - N/A   Scattered Clouds
4:53 AM 75.0 °F - 72.0 °F 90% 29.92 in 10.0 mi South 3.5 mph - N/A   Scattered Clouds
5:53 AM 75.0 °F - 72.0 °F 90% 29.93 in 10.0 mi Calm Calm - N/A   Partly Cloudy
6:53 AM 75.0 °F - 72.0 °F 90% 29.94 in 9.0 mi Calm Calm - N/A   Scattered Clouds
7:53 AM 75.9 °F - 73.0 °F 91% 29.96 in 8.0 mi Calm Calm - N/A   Scattered Clouds
8:53 AM 81.0 °F 85.8 °F 73.0 °F 77% 29.97 in 10.0 mi SSW 4.6 mph - N/A   Partly Cloudy
9:53 AM 84.0 °F 89.6 °F 72.0 °F 67% 29.98 in 10.0 mi SSW 6.9 mph - N/A   Scattered Clouds
10:53 AM 86.0 °F 92.2 °F 72.0 °F 63% 29.98 in 10.0 mi SW 6.9 mph - N/A   Scattered Clouds
11:53 AM 88.0 °F 94.7 °F 72.0 °F 59% 29.98 in 10.0 mi SSW 8.1 mph - N/A   Scattered Clouds
12:53 PM 90.0 °F 97.9 °F 73.0 °F 57% 29.97 in 10.0 mi Variable 5.8 mph - N/A   Mostly Cloudy
1:53 PM 91.0 °F 96.6 °F 70.0 °F 50% 29.95 in 10.0 mi SW 6.9 mph - N/A   Mostly Cloudy
2:53 PM 91.9 °F 98.4 °F 71.1 °F 50% 29.93 in 10.0 mi Variable 6.9 mph - N/A   Mostly Cloudy
3:53 PM 91.0 °F 95.6 °F 69.1 °F 48% 29.91 in 10.0 mi SSW 8.1 mph - N/A   Mostly Cloudy
4:53 PM 87.1 °F 93.6 °F 72.0 °F 61% 29.91 in 10.0 mi NNW 15.0 mph 20.7 mph N/A   Mostly Cloudy
5:17 PM 87.8 °F 95.6 °F 73.4 °F 62% 29.92 in 10.0 mi NNE 16.1 mph 20.7 mph N/A Thunderstorm Thunderstorm
5:53 PM 82.9 °F 87.5 °F 71.1 °F 67% 29.90 in 10.0 mi ENE 8.1 mph - N/A Thunderstorm Thunderstorm
6:13 PM 82.4 °F 87.2 °F 71.6 °F 70% 29.90 in 10.0 mi NNE 5.8 mph - N/A   Mostly Cloudy
6:53 PM 84.0 °F 90.2 °F 73.0 °F 69% 29.92 in 10.0 mi East 4.6 mph - N/A   Mostly Cloudy
7:53 PM 82.0 °F 86.7 °F 72.0 °F 71% 29.94 in 10.0 mi Variable 4.6 mph - N/A   Mostly Cloudy
8:53 PM 75.9 °F - 69.1 °F 79% 29.98 in 10.0 mi SSW 19.6 mph 32.2 mph N/A   Mostly Cloudy
9:00 PM 73.4 °F - 68.0 °F 83% 29.99 in 3.0 mi SSW 23.0 mph 33.4 mph 0.00 in Rain Heavy Rain
9:09 PM 71.6 °F - 68.0 °F 88% 30.01 in 2.0 mi SSW 19.6 mph 34.5 mph 0.12 in Rain , Thunderstorm Heavy Thunderstorms and Rain
9:22 PM 71.6 °F - 69.8 °F 94% 30.00 in 2.0 mi SW 11.5 mph 25.3 mph 0.28 in Rain , Thunderstorm Heavy Thunderstorms and Rain
9:43 PM 71.6 °F - 68.0 °F 88% 29.99 in 3.0 mi SW 8.1 mph - 0.43 in Rain , Thunderstorm Light Thunderstorms and Rain
9:53 PM 72.0 °F - 69.1 °F 91% 29.98 in 3.0 mi SSW 4.6 mph - 0.43 in Rain , Thunderstorm Light Thunderstorms and Rain
10:29 PM 71.6 °F - 69.8 °F 94% 29.98 in 7.0 mi SW 3.5 mph - 0.04 in Rain Light Rain
10:53 PM 73.0 °F - 70.0 °F 90% 29.97 in 10.0 mi Calm Calm - 0.06 in Rain Light Rain
11:53 PM 73.0 °F - 69.1 °F 87% 29.98 in 10.0 mi South 8.1 mph - 0.00 in Rain Light Rain